Regional Weather Roundup
Issued by NWS

Home | Current Version | Previous Version | Text Only | Print | Product List | Glossary On
Versions: 1 2 3 4 5 6 7 8 9 10 11 12 13 14 15 16 17 18 19 20 21 22 23 24 25 26 27 28 29 30 31 32 33 34 35 36 37 38 39 40 41 42 43 44 45 46 47 48 49 50
000
ASUS43 KLSX 270707
RWRMO

WEATHER SUMMARY FOR MISSOURI
NATIONAL WEATHER SERVICE SPRINGFIELD MO
200 AM CDT WED AUG 27 2014

NOTE: "FAIR" INDICATES FEW OR NO CLOUDS BELOW 12,000 FEET WITH NO
       SIGNIFICANT WEATHER AND/OR OBSTRUCTIONS TO VISIBILITY.
       CURRENT SKY AND/OR WEATHER CONDITIONS ARE NOT AVAILABLE FOR
       CHILLICOTHE AND FARMINGTON.

MOZ001>031-035>038-043-044-053-054-270800-
...NORTHERN AND WESTERN MISSOURI...

CITY           SKY/WX    TMP DP  RH WIND       PRES   REMARKS
KANSAS CTY INT MOCLDY    77  71  82 E8        30.10S
KANSAS C DTWN  CLEAR     79  72  79 E9        30.08F
LEE`S SUMMIT   CLEAR     76  73  91 NE7       30.11R
ST JOSEPH      PTCLDY    75  71  87 E6        30.09F
CHILLICOTHE      N/A     74  69  85 CALM      30.12F
KIRKSVILLE     CLEAR     70  67  90 E3        30.13F

$$
MOZ066>068-077>081-088>096-101>105-270800-
...SOUTHWEST MISSOURI...

CITY           SKY/WX    TMP DP  RH WIND       PRES   REMARKS
SPRINGFIELD    CLEAR     74  68  81 NE5       30.11R
JOPLIN         CLEAR     75  67  76 CALM      30.08S

$$
MOZ032>034-039>042-045>050-055>058-069>072-270800-
...CENTRAL MISSOURI...

CITY           SKY/WX    TMP DP  RH WIND       PRES   REMARKS
COLUMBIA       PTCLDY    75  73  93 NE7       30.10F
JEFFERSON CITY CLEAR     73  70  90 CALM      30.09S
ROLLA          CLEAR     72  66  81 E5        30.11S
SEDALIA        PTCLDY    74  69  85 SE3       30.10S
WHITEMAN AFB   CLEAR     73  57  57 CALM      30.10R
OSAGE BEACH    MOCLDY    70  66  88 CALM      30.11S

$$
MOZ051-052-059>065-270800-
...EAST CENTRAL MISSOURI...

CITY           SKY/WX    TMP DP  RH WIND       PRES   REMARKS
ST LOUIS INTL  MOCLDY    77  68  73 S3        30.08F
SPIRIT OF STL  MOCLDY    75  68  78 S3        30.08F
ST CHARLES     MOCLDY    73  70  90 SW7       30.06F

$$
MOZ072>076-082>087-097>100-106>115-270800-
...SOUTH CENTRAL AND SOUTHEAST MISSOURI...

CITY           SKY/WX    TMP DP  RH WIND       PRES   REMARKS
CAPE GIRARDEAU CLEAR     73  71  93 CALM      30.07F FOG
FARMINGTON     CLEAR     72  68  88 CALM      30.12F
POPLAR BLUFF   CLEAR     73  69  87 CALM      30.06F
WEST PLAINS    CLEAR     72  68  87 CALM      30.13S

$$


USA.gov is the U.S. government's official web portal to all federal, state and local government web resources and services.